User: anonymous   Login
Location: Westminster College Observatory
(41.1194°N, 80.3291°W)
Time: 22:05:27
(UTC-04:00)
Language:

Tiangong 2 - Orbit

View from above orbital plane
View from above orbital plane
View from above satellite
View from above satellite

Ground track
Ground track

The orbit data is extracted from the following two-line orbital elements,

1 41765U 16057A   18291.84901620  .00004227  00000-0  55912-4 0  9994
2 41765  42.7851 324.9504 0006911  26.0395 330.1933 15.59756902119328
Epoch (UTC): 18 October 2018 20:22:35
Eccentricity: 0.0006911
inclination: 42.7851°
perigee height: 383 km
apogee height: 393 km
right ascension of ascending node: 324.9504°
argument of perigee: 26.0395°
revolutions per day: 15.59756902
mean anomaly at epoch: 330.1933°
orbit number at epoch: 11932

The dashed part of the orbit path shows where the satellite is in the earth's shadow,  

DLR